ELECTRON KICK STAGE R/B, 58993

Orbit data source: Space-Track

ELECTRON KICK STAGE R/B, 58993 is space debris in SSO originally from a launch on Sun, 18 Feb 2024 UTC launched from the Rocket Lab Launch Complex (RLLC). Debris objects in space refer to the collection of defunct objects orbiting the Earth. Examples of debris include non-operational satellites, rocket bodies, and fragments generated from explosions, collisions, or faulty payload assembly.

Loading next visibility...
Identifier
58993, 2024-034B
Orbit
SSO
Country
Flag of USUS
Related business
Manufacturer
Rocket Lab
Mission
Spacecraft
Bus & Motor
KICK STAGE, CURIE
Mass
~43 kg wet, ~43 kg dry
Launch date (UTC)
2024-02-18 (2 years ago)
Launch vehicle
Unknown
Launch site
Rocket Lab Launch Complex (RLLC)
Object type
Payload
Rocket body
Debris
Shape & HBR
Trunc Cone, 0.7 m
Radar Cross Section
0.760 m², Medium (>0.1 m² and < 1m²)

Expand to show TLE details & history
Last TLE update: 5 hours ago

TLE from 5 hours ago
0 ELECTRON KICK STAGE R/B
1 58993U 24034B   26036.84212760  .00073156  00000-0  14840-2 0  9995
2 58993  98.1994  79.6935 0018181 139.8081 220.4514 15.45933352109125
Epoch: 2026-02-05T20:12Z
TLE epoch observation values (Epoch: 2026-02-05T20:12:39.824Z)
Latitude
-0.00005°
Longitude
0.53902°
Altitude
441.167 km
Speed
7.642 km/s
True Right ascension
05h 18m 46s
True Declination
0° 00' 00"
Sunlit
Object was in full shadow at epoch
Visualization orbit readout
Latitude
Unknown
Longitude
Unknown
Altitude
Unknown
Speed
Unknown
Apparent Right ascension
Unknown
Apparent Declination
Unknown
Sunlit
N/A
Visualization observer readout
Local Sidereal Time
02:48:05
Azimuth
Unknown
Elevation
Unknown
Doppler factor
Unknown
Orbital elements
Apogee altitude
437.974 km
Perigee altitude
413.235 km
Semi-major axis
6,803.741 km
Eccentricity
0.00182
Inclination
98.1994°
RAAN
79.6935°
Arg. of periapsis
139.8081°
True anomaly
220.31646°
Mean anomaly
220.4514°
Eccentric anomaly
220.38391°
Mean motion
3.86742 °/min
Orbital period
93.09 mins
BSTAR
0.001484
Loading maneuver chart data...
Computing Atmospheric mass density...
Loading historical data...
Loading historical data...
Loading historical data...
Loading historical data...
Loading historical data...
Loading historical data...
Loading historical data...
Other satellites on launch #34 in the year 2024 (2024-02-18 UTC)

Documentation

Showing up to 5 results
|